Time,TemperatureF,DewpointF,PressureIn,WindDirection,WindDirectionDegrees,WindSpeedMPH,WindSpeedGustMPH,Humidity,HourlyPrecipIn,Conditions,Clouds,dailyrainin,SoftwareType,DateUTC
2013-08-31 00:00:00,77.9,72.0,29.95,South,183,0.0,3.0,82,0.00,,,0.00,VWS V14.01,2013-08-31 05:00:00,
2013-08-31 00:01:00,77.9,72.0,29.94,South,183,0.0,1.0,82,0.00,,,0.00,VWS V14.01,2013-08-31 05:01:00,
2013-08-31 00:06:00,77.8,71.9,29.95,South,174,0.0,3.0,82,0.00,,,0.00,VWS V14.01,2013-08-31 05:06:00,
2013-08-31 00:11:00,77.7,71.8,29.95,SSE,166,0.0,3.0,82,0.00,,,0.00,VWS V14.01,2013-08-31 05:11:00,
2013-08-31 00:16:00,77.5,71.9,29.95,SSE,166,0.0,3.0,83,0.00,,,0.00,VWS V14.01,2013-08-31 05:16:00,
2013-08-31 00:21:00,77.3,71.7,29.95,SSE,158,1.5,3.0,83,0.00,,,0.00,VWS V14.01,2013-08-31 05:21:00,
2013-08-31 00:26:00,77.1,71.9,29.95,SSE,160,0.0,3.0,84,0.00,,,0.00,VWS V14.01,2013-08-31 05:26:00,
2013-08-31 00:31:00,76.8,71.6,29.95,SSE,159,0.0,3.0,84,0.00,,,0.00,VWS V14.01,2013-08-31 05:31:00,
2013-08-31 00:36:00,76.6,71.8,29.95,SSE,160,0.0,3.0,85,0.00,,,0.00,VWS V14.01,2013-08-31 05:36:00,
2013-08-31 00:41:00,76.4,71.9,29.95,SSE,159,0.0,3.0,86,0.00,,,0.00,VWS V14.01,2013-08-31 05:41:00,
2013-08-31 00:46:00,76.3,71.8,29.95,SSE,159,0.0,3.0,86,0.00,,,0.00,VWS V14.01,2013-08-31 05:46:00,
2013-08-31 00:51:00,76.2,71.7,29.95,SSE,159,0.0,3.0,86,0.00,,,0.00,VWS V14.01,2013-08-31 05:51:00,
2013-08-31 00:56:00,76.2,71.7,29.95,SSE,160,0.0,3.0,86,0.00,,,0.00,VWS V14.01,2013-08-31 05:56:00,
2013-08-31 01:00:00,77.9,72.0,29.95,South,183,0.0,3.0,82,0.00,,,0.00,VWS V15.00,2013-08-31 06:00:00,
2013-08-31 01:01:00,76.1,71.6,29.95,SE,127,0.0,3.0,86,0.00,,,0.00,VWS V14.01,2013-08-31 06:01:00,
2013-08-31 01:06:00,76.0,71.9,29.96,SE,127,0.0,3.0,87,0.00,,,0.00,VWS V14.01,2013-08-31 06:06:00,
2013-08-31 01:11:00,75.8,71.7,29.96,SE,127,0.0,3.0,87,0.00,,,0.00,VWS V14.01,2013-08-31 06:11:00,
2013-08-31 01:16:00,75.7,71.6,29.96,SE,127,0.0,3.0,87,0.00,,,0.00,VWS V14.01,2013-08-31 06:16:00,
2013-08-31 01:21:00,75.7,71.6,29.96,SE,129,0.0,3.0,87,0.00,,,0.00,VWS V14.01,2013-08-31 06:21:00,
2013-08-31 01:26:00,75.7,71.6,29.96,SE,132,0.0,3.0,87,0.00,,,0.00,VWS V14.01,2013-08-31 06:26:00,
2013-08-31 01:31:00,75.7,71.6,29.96,SE,131,0.0,3.0,87,0.00,,,0.00,VWS V14.01,2013-08-31 06:31:00,
2013-08-31 01:36:00,75.5,71.4,29.96,SE,131,0.0,3.0,87,0.00,,,0.00,VWS V14.01,2013-08-31 06:36:00,
2013-08-31 01:41:00,75.5,71.4,29.96,SE,131,0.0,3.0,87,0.00,,,0.00,VWS V14.01,2013-08-31 06:41:00,
2013-08-31 01:46:00,75.4,71.3,29.96,SE,131,0.0,3.0,87,0.00,,,0.00,VWS V14.01,2013-08-31 06:46:00,
2013-08-31 01:51:00,75.4,71.3,29.96,SE,131,0.0,3.0,87,0.00,,,0.00,VWS V14.01,2013-08-31 06:51:00,
2013-08-31 01:56:00,75.2,71.1,29.96,SE,131,0.0,3.0,87,0.00,,,0.00,VWS V14.01,2013-08-31 06:56:00,
2013-08-31 02:00:00,75.1,71.3,29.96,SE,131,0.0,3.0,88,0.00,,,0.00,VWS V14.01,2013-08-31 07:00:00,
2013-08-31 02:01:00,75.1,71.3,29.96,SE,131,0.0,0.0,88,0.00,,,0.00,VWS V14.01,2013-08-31 07:01:00,
2013-08-31 02:06:00,75.0,71.2,29.96,SE,131,0.0,0.0,88,0.00,,,0.00,VWS V14.01,2013-08-31 07:06:00,
2013-08-31 02:11:00,74.9,71.1,29.96,SE,131,0.0,0.0,88,0.00,,,0.00,VWS V14.01,2013-08-31 07:11:00,
2013-08-31 02:16:00,74.7,70.9,29.96,SE,131,0.0,0.0,88,0.00,,,0.00,VWS V14.01,2013-08-31 07:16:00,
2013-08-31 02:21:00,74.6,71.2,29.95,SE,131,0.0,0.0,89,0.00,,,0.00,VWS V14.01,2013-08-31 07:21:00,
2013-08-31 02:26:00,74.5,71.1,29.95,SE,131,0.0,0.0,89,0.00,,,0.00,VWS V14.01,2013-08-31 07:26:00,
2013-08-31 02:31:00,74.4,70.9,29.96,SE,131,0.0,0.0,89,0.00,,,0.00,VWS V14.01,2013-08-31 07:31:00,
2013-08-31 02:36:00,74.3,70.8,29.95,SE,131,0.0,0.0,89,0.00,,,0.00,VWS V14.01,2013-08-31 07:36:00,
2013-08-31 02:41:00,74.1,70.7,29.95,SE,131,0.0,0.0,89,0.00,,,0.00,VWS V14.01,2013-08-31 07:41:00,
2013-08-31 02:46:00,74.0,70.9,29.96,SE,131,0.0,0.0,90,0.00,,,0.00,VWS V14.01,2013-08-31 07:46:00,
2013-08-31 02:51:00,73.9,70.8,29.95,SE,131,1.5,1.5,90,0.00,,,0.00,VWS V14.01,2013-08-31 07:51:00,
2013-08-31 02:56:00,73.9,70.8,29.95,SE,131,0.0,1.0,90,0.00,,,0.00,VWS V14.01,2013-08-31 07:56:00,
2013-08-31 03:00:00,75.1,71.3,29.96,SE,131,0.0,3.0,88,0.00,,,0.00,VWS V15.00,2013-08-31 08:00:00,
2013-08-31 03:01:00,74.0,70.9,29.95,SE,131,0.0,1.0,90,0.00,,,0.00,VWS V14.01,2013-08-31 08:01:00,
2013-08-31 03:06:00,73.9,70.8,29.95,SE,131,0.0,1.0,90,0.00,,,0.00,VWS V14.01,2013-08-31 08:06:00,
2013-08-31 03:11:00,73.9,70.8,29.95,SE,131,0.0,1.0,90,0.00,,,0.00,VWS V14.01,2013-08-31 08:11:00,
2013-08-31 03:16:00,74.0,70.6,29.95,SE,132,0.0,1.0,89,0.00,,,0.00,VWS V14.01,2013-08-31 08:16:00,
2013-08-31 03:21:00,74.1,70.7,29.95,SE,133,0.0,1.0,89,0.00,,,0.00,VWS V14.01,2013-08-31 08:21:00,
2013-08-31 03:26:00,74.1,70.7,29.95,SE,133,0.0,1.0,89,0.00,,,0.00,VWS V14.01,2013-08-31 08:26:00,
2013-08-31 03:31:00,74.1,70.7,29.95,SE,133,0.0,1.0,89,0.00,,,0.00,VWS V14.01,2013-08-31 08:31:00,
2013-08-31 03:36:00,74.3,70.8,29.94,SE,135,0.0,1.0,89,0.00,,,0.00,VWS V14.01,2013-08-31 08:36:00,
2013-08-31 03:41:00,74.4,70.6,29.95,SE,135,0.0,1.0,88,0.00,,,0.00,VWS V14.01,2013-08-31 08:41:00,
2013-08-31 03:46:00,74.4,70.6,29.95,SE,135,0.0,1.0,88,0.00,,,0.00,VWS V14.01,2013-08-31 08:46:00,
2013-08-31 03:51:00,74.3,70.8,29.95,SE,135,0.0,1.0,89,0.00,,,0.00,VWS V14.01,2013-08-31 08:51:00,
2013-08-31 03:56:00,74.2,70.8,29.95,SE,135,0.0,1.0,89,0.00,,,0.00,VWS V14.01,2013-08-31 08:56:00,
2013-08-31 04:00:00,74.2,70.8,29.95,SE,135,0.0,1.0,89,0.00,,,0.00,VWS V14.01,2013-08-31 09:00:00,
2013-08-31 04:01:00,74.2,70.8,29.95,SE,135,0.0,0.0,89,0.00,,,0.00,VWS V14.01,2013-08-31 09:01:00,
2013-08-31 04:06:00,74.1,70.7,29.95,SE,135,0.0,0.0,89,0.00,,,0.00,VWS V14.01,2013-08-31 09:06:00,
2013-08-31 04:11:00,74.0,70.6,29.95,SE,135,0.0,0.0,89,0.00,,,0.00,VWS V14.01,2013-08-31 09:11:00,
2013-08-31 04:16:00,74.0,70.6,29.95,SE,135,0.0,0.0,89,0.00,,,0.00,VWS V14.01,2013-08-31 09:16:00,
2013-08-31 04:21:00,74.0,70.6,29.95,SE,136,0.0,1.0,89,0.00,,,0.00,VWS V14.01,2013-08-31 09:21:00,
2013-08-31 04:26:00,73.9,70.5,29.95,SE,135,0.0,1.0,89,0.00,,,0.00,VWS V14.01,2013-08-31 09:26:00,
2013-08-31 04:31:00,73.9,70.5,29.95,SE,141,0.0,1.0,89,0.00,,,0.00,VWS V14.01,2013-08-31 09:31:00,
2013-08-31 04:36:00,73.9,70.5,29.95,SE,141,0.0,1.0,89,0.00,,,0.00,VWS V14.01,2013-08-31 09:36:00,
2013-08-31 04:41:00,73.9,70.5,29.95,SE,141,0.0,1.0,89,0.00,,,0.00,VWS V14.01,2013-08-31 09:41:00,
2013-08-31 04:45:00,73.9,70.5,29.95,South,170,0.0,1.0,89,0.00,,,0.00,VWS V14.01,2013-08-31 09:45:00,
2013-08-31 04:50:00,74.0,70.2,29.95,South,170,0.0,1.0,88,0.00,,,0.00,VWS V14.01,2013-08-31 09:50:00,
2013-08-31 04:55:00,74.0,70.2,29.95,South,170,0.0,1.0,88,0.00,,,0.00,VWS V14.01,2013-08-31 09:55:00,
2013-08-31 05:00:00,74.0,70.2,29.94,South,170,0.0,1.0,88,0.00,,,0.00,VWS V14.01,2013-08-31 10:00:00,
2013-08-31 05:05:00,73.9,70.1,29.94,South,176,0.0,2.0,88,0.00,,,0.00,VWS V14.01,2013-08-31 10:05:00,
2013-08-31 05:10:00,73.9,70.1,29.94,SSE,166,0.0,2.0,88,0.00,,,0.00,VWS V14.01,2013-08-31 10:10:00,
2013-08-31 05:15:00,73.9,70.1,29.94,South,170,0.0,2.0,88,0.00,,,0.00,VWS V14.01,2013-08-31 10:15:00,
2013-08-31 05:20:00,74.0,70.2,29.95,SSE,163,0.0,2.0,88,0.00,,,0.00,VWS V14.01,2013-08-31 10:20:00,
2013-08-31 05:25:00,73.9,70.1,29.95,SSE,163,0.0,2.0,88,0.00,,,0.00,VWS V14.01,2013-08-31 10:25:00,
2013-08-31 05:30:00,73.7,69.9,29.95,SSE,163,0.0,2.0,88,0.00,,,0.00,VWS V14.01,2013-08-31 10:30:00,
2013-08-31 05:35:00,73.5,69.7,29.95,SSE,164,0.0,2.0,88,0.00,,,0.00,VWS V14.01,2013-08-31 10:35:00,
2013-08-31 05:40:00,73.2,70.1,29.95,SSE,163,0.0,2.0,90,0.00,,,0.00,VWS V14.01,2013-08-31 10:40:00,
2013-08-31 05:45:00,73.0,69.9,29.95,SSE,165,0.0,2.0,90,0.00,,,0.00,VWS V14.01,2013-08-31 10:45:00,
2013-08-31 05:50:00,73.2,70.1,29.95,South,174,0.0,2.0,90,0.00,,,0.00,VWS V14.01,2013-08-31 10:50:00,
2013-08-31 05:55:00,73.5,70.1,29.95,SSW,198,0.0,2.0,89,0.00,,,0.00,VWS V14.01,2013-08-31 10:55:00,
2013-08-31 06:00:00,73.7,69.9,29.95,South,190,0.0,0.0,88,0.00,,,0.00,VWS V14.01,2013-08-31 11:00:00,
2013-08-31 06:05:00,73.7,69.9,29.95,South,190,0.0,0.0,88,0.00,,,0.00,VWS V14.01,2013-08-31 11:05:00,
2013-08-31 06:10:00,73.6,69.8,29.95,South,190,0.0,0.0,88,0.00,,,0.00,VWS V14.01,2013-08-31 11:10:00,
2013-08-31 06:15:00,73.6,69.8,29.95,SSE,160,0.0,1.0,88,0.00,,,0.00,VWS V14.01,2013-08-31 11:15:00,
2013-08-31 06:20:00,73.6,69.8,29.95,SSE,160,0.0,1.0,88,0.00,,,0.00,VWS V14.01,2013-08-31 11:20:00,
2013-08-31 06:25:00,73.7,69.9,29.95,SSE,160,0.0,1.0,88,0.00,,,0.00,VWS V14.01,2013-08-31 11:25:00,
2013-08-31 06:30:00,73.8,69.7,29.95,South,183,0.0,2.0,87,0.00,,,0.00,VWS V14.01,2013-08-31 11:30:00,
2013-08-31 06:35:00,74.0,69.9,29.96,South,169,0.0,2.0,87,0.00,,,0.00,VWS V14.01,2013-08-31 11:35:00,
2013-08-31 06:40:00,74.2,69.8,29.95,South,181,0.0,2.0,86,0.00,,,0.00,VWS V14.01,2013-08-31 11:40:00,
2013-08-31 06:45:00,74.4,69.9,29.96,South,186,0.0,2.0,86,0.00,,,0.00,VWS V14.01,2013-08-31 11:45:00,
2013-08-31 06:50:00,74.5,69.7,29.96,SSE,158,1.5,2.0,85,0.00,,,0.00,VWS V14.01,2013-08-31 11:50:00,
2013-08-31 06:55:00,74.6,69.8,29.96,SSE,166,1.5,2.0,85,0.00,,,0.00,VWS V14.01,2013-08-31 11:55:00,
2013-08-31 07:00:00,74.7,69.9,29.96,SSE,158,0.0,2.0,85,0.00,,,0.00,VWS V14.01,2013-08-31 12:00:00,
2013-08-31 07:05:00,74.8,70.0,29.96,South,177,1.5,2.0,85,0.00,,,0.00,VWS V14.01,2013-08-31 12:05:00,
2013-08-31 07:10:00,75.0,69.8,29.96,SSE,165,1.5,2.0,84,0.00,,,0.00,VWS V14.01,2013-08-31 12:10:00,
2013-08-31 07:15:00,75.4,70.2,29.96,SSE,163,3.0,3.0,84,0.00,,,0.00,VWS V14.01,2013-08-31 12:15:00,
2013-08-31 07:20:00,75.7,70.2,29.96,South,176,0.0,2.0,83,0.00,,,0.00,VWS V14.01,2013-08-31 12:20:00,
2013-08-31 07:25:00,76.2,70.3,29.96,SSE,150,0.0,2.0,82,0.00,,,0.00,VWS V14.01,2013-08-31 12:25:00,
2013-08-31 07:30:00,76.7,70.4,29.97,SSE,156,1.5,2.0,81,0.00,,,0.00,VWS V14.01,2013-08-31 12:30:00,
2013-08-31 07:35:00,77.2,70.9,29.96,SSE,167,0.0,2.0,81,0.00,,,0.00,VWS V14.01,2013-08-31 12:35:00,
2013-08-31 07:40:00,77.7,71.0,29.97,SSE,162,0.0,2.0,80,0.00,,,0.00,VWS V14.01,2013-08-31 12:40:00,
2013-08-31 07:45:00,78.2,71.2,29.97,SSE,152,0.0,2.0,79,0.00,,,0.00,VWS V14.01,2013-08-31 12:45:00,
2013-08-31 07:50:00,78.8,71.4,29.97,SSE,160,0.0,2.0,78,0.00,,,0.00,VWS V14.01,2013-08-31 12:50:00,
2013-08-31 07:55:00,79.2,71.0,29.97,South,174,3.0,3.0,76,0.00,,,0.00,VWS V14.01,2013-08-31 12:55:00,
2013-08-31 08:00:00,79.6,71.0,29.97,SSE,162,3.0,3.0,75,0.00,,,0.00,VWS V14.01,2013-08-31 13:00:00,
2013-08-31 08:05:00,79.9,71.3,29.98,South,174,0.0,3.0,75,0.00,,,0.00,VWS V14.01,2013-08-31 13:05:00,
2013-08-31 08:10:00,80.3,71.3,29.98,South,169,3.0,3.0,74,0.00,,,0.00,VWS V14.01,2013-08-31 13:10:00,
2013-08-31 08:15:00,80.8,71.3,29.98,SE,142,4.5,4.5,73,0.00,,,0.00,VWS V14.01,2013-08-31 13:15:00,
2013-08-31 08:20:00,81.1,71.2,29.98,South,175,0.0,5.0,72,0.00,,,0.00,VWS V14.01,2013-08-31 13:20:00,
2013-08-31 08:25:00,81.0,71.5,29.98,SSE,168,0.0,5.0,73,0.00,,,0.00,VWS V14.01,2013-08-31 13:25:00,
2013-08-31 08:30:00,80.8,71.7,29.98,South,172,0.0,5.0,74,0.00,,,0.00,VWS V14.01,2013-08-31 13:30:00,
2013-08-31 08:35:00,81.0,71.5,29.98,South,174,1.5,5.0,73,0.00,,,0.00,VWS V14.01,2013-08-31 13:35:00,
2013-08-31 08:40:00,81.3,71.4,29.98,SSE,150,3.0,5.0,72,0.00,,,0.00,VWS V14.01,2013-08-31 13:40:00,
2013-08-31 08:45:00,82.0,72.1,29.98,SSE,163,1.5,5.0,72,0.00,,,0.00,VWS V14.01,2013-08-31 13:45:00,
2013-08-31 08:50:00,82.8,72.9,29.98,SSE,166,0.0,5.0,72,0.00,,,0.00,VWS V14.01,2013-08-31 13:50:00,
2013-08-31 08:55:00,83.5,72.7,29.98,SSE,149,0.0,5.0,70,0.00,,,0.00,VWS V14.01,2013-08-31 13:55:00,
2013-08-31 09:00:00,84.1,72.0,29.98,SSW,195,1.5,6.0,67,0.00,,,0.00,VWS V14.01,2013-08-31 14:00:00,
2013-08-31 09:05:00,84.0,71.4,29.98,SW,218,0.0,6.0,66,0.00,,,0.00,VWS V14.01,2013-08-31 14:05:00,
2013-08-31 09:10:00,83.9,71.3,29.98,South,184,0.0,6.0,66,0.00,,,0.00,VWS V14.01,2013-08-31 14:10:00,
2013-08-31 09:15:00,84.3,71.3,29.98,West,259,3.0,7.0,65,0.00,,,0.00,VWS V14.01,2013-08-31 14:15:00,
2013-08-31 09:20:00,84.7,71.2,29.98,SSE,165,6.0,7.0,64,0.00,,,0.00,VWS V14.01,2013-08-31 14:20:00,
2013-08-31 09:25:00,85.2,72.1,29.98,South,176,0.0,7.0,65,0.00,,,0.00,VWS V14.01,2013-08-31 14:25:00,
2013-08-31 09:30:00,85.6,71.6,29.98,South,174,4.5,7.0,63,0.00,,,0.00,VWS V14.01,2013-08-31 14:30:00,
2013-08-31 09:35:00,85.8,71.8,29.98,SSE,155,6.0,7.0,63,0.00,,,0.00,VWS V14.01,2013-08-31 14:35:00,
2013-08-31 09:40:00,86.1,71.1,29.98,SE,145,3.0,7.0,61,0.00,,,0.00,VWS V14.01,2013-08-31 14:40:00,
2013-08-31 09:45:00,86.4,71.8,29.98,SSE,165,0.0,7.0,62,0.00,,,0.00,VWS V14.01,2013-08-31 14:45:00,
2013-08-31 09:50:00,86.6,71.1,29.98,SSE,159,3.0,7.0,60,0.00,,,0.00,VWS V14.01,2013-08-31 14:50:00,
2013-08-31 09:55:00,86.9,71.8,29.98,South,184,0.0,7.0,61,0.00,,,0.00,VWS V14.01,2013-08-31 14:55:00,
2013-08-31 10:00:00,87.4,72.3,29.98,SSE,151,4.5,4.5,61,0.00,,,0.00,VWS V14.01,2013-08-31 15:00:00,
2013-08-31 10:05:00,87.6,71.0,29.98,SSE,149,3.0,5.0,58,0.00,,,0.00,VWS V14.01,2013-08-31 15:05:00,
2013-08-31 10:10:00,87.9,71.3,29.98,SW,217,3.0,5.0,58,0.00,,,0.00,VWS V14.01,2013-08-31 15:10:00,
2013-08-31 10:15:00,88.2,72.1,29.98,South,184,3.0,7.0,59,0.00,,,0.00,VWS V14.01,2013-08-31 15:15:00,
2013-08-31 10:20:00,88.8,72.1,29.97,SSW,203,3.0,7.0,58,0.00,,,0.00,VWS V14.01,2013-08-31 15:20:00,
2013-08-31 10:25:00,88.8,71.1,29.98,SSW,193,0.0,7.0,56,0.00,,,0.00,VWS V14.01,2013-08-31 15:25:00,
2013-08-31 10:30:00,89.2,71.5,29.98,South,181,3.0,7.0,56,0.00,,,0.00,VWS V14.01,2013-08-31 15:30:00,
2013-08-31 10:35:00,89.5,70.7,29.97,SSE,166,0.0,7.0,54,0.00,,,0.00,VWS V14.01,2013-08-31 15:35:00,
2013-08-31 10:40:00,89.7,71.4,29.97,South,181,1.5,7.0,55,0.00,,,0.00,VWS V14.01,2013-08-31 15:40:00,
2013-08-31 10:45:00,90.0,69.5,29.97,ESE,115,1.5,7.0,51,0.00,,,0.00,VWS V14.01,2013-08-31 15:45:00,
2013-08-31 10:50:00,90.1,70.7,29.97,SSW,195,0.0,7.0,53,0.00,,,0.00,VWS V14.01,2013-08-31 15:50:00,
2013-08-31 10:55:00,90.2,70.8,29.97,East,87,0.0,7.0,53,0.00,,,0.00,VWS V14.01,2013-08-31 15:55:00,
2013-08-31 11:00:00,90.5,71.6,29.97,SSE,152,0.0,7.0,54,0.00,,,0.00,VWS V14.01,2013-08-31 16:00:00,
2013-08-31 11:05:00,91.0,71.5,29.97,West,262,1.5,7.0,53,0.00,,,0.00,VWS V14.01,2013-08-31 16:05:00,
2013-08-31 11:10:00,91.2,70.0,29.96,SSW,201,3.0,7.0,50,0.00,,,0.00,VWS V14.01,2013-08-31 16:10:00,
2013-08-31 11:15:00,91.4,71.9,29.96,South,172,0.0,7.0,53,0.00,,,0.00,VWS V14.01,2013-08-31 16:15:00,
2013-08-31 11:20:00,91.8,71.1,29.96,South,190,0.0,7.0,51,0.00,,,0.00,VWS V14.01,2013-08-31 16:20:00,
2013-08-31 11:25:00,92.0,70.7,29.96,South,187,7.5,8.0,50,0.00,,,0.00,VWS V14.01,2013-08-31 16:25:00,
2013-08-31 11:30:00,92.1,70.8,29.96,SSE,157,0.0,8.0,50,0.00,,,0.00,VWS V14.01,2013-08-31 16:30:00,
2013-08-31 11:35:00,92.5,71.2,29.96,SW,219,0.0,8.0,50,0.00,,,0.00,VWS V14.01,2013-08-31 16:35:00,
2013-08-31 11:40:00,92.8,70.8,29.95,SE,135,4.5,8.0,49,0.00,,,0.00,VWS V14.01,2013-08-31 16:40:00,
2013-08-31 11:45:00,93.0,70.4,29.95,SSW,201,1.5,8.0,48,0.00,,,0.00,VWS V14.01,2013-08-31 16:45:00,
2013-08-31 11:50:00,93.1,70.5,29.95,NW,304,0.0,8.0,48,0.00,,,0.00,VWS V14.01,2013-08-31 16:50:00,
2013-08-31 11:55:00,93.2,71.8,29.95,ESE,105,1.5,8.0,50,0.00,,,0.00,VWS V14.01,2013-08-31 16:55:00,
2013-08-31 12:00:00,93.4,70.8,29.95,ESE,105,0.0,2.0,48,0.00,,,0.00,VWS V14.01,2013-08-31 17:00:00,
2013-08-31 12:05:00,93.8,70.5,29.95,SW,228,6.0,6.0,47,0.00,,,0.00,VWS V14.01,2013-08-31 17:05:00,
2013-08-31 12:10:00,94.0,71.3,29.95,South,173,0.0,9.0,48,0.00,,,0.00,VWS V14.01,2013-08-31 17:10:00,
2013-08-31 12:15:00,94.3,71.6,29.94,South,173,3.0,9.0,48,0.00,,,0.00,VWS V14.01,2013-08-31 17:15:00,
2013-08-31 12:20:00,94.3,70.4,29.94,SW,226,3.0,9.0,46,0.00,,,0.00,VWS V14.01,2013-08-31 17:20:00,
2013-08-31 12:25:00,94.4,70.4,29.94,South,181,9.0,9.0,46,0.00,,,0.00,VWS V14.01,2013-08-31 17:25:00,
2013-08-31 12:30:00,94.5,70.5,29.94,SSE,152,0.0,9.0,46,0.00,,,0.00,VWS V14.01,2013-08-31 17:30:00,
2013-08-31 12:35:00,94.6,70.6,29.94,South,186,3.0,9.0,46,0.00,,,0.00,VWS V14.01,2013-08-31 17:35:00,
2013-08-31 12:40:00,94.9,70.2,29.94,SSE,150,3.0,9.0,45,0.00,,,0.00,VWS V14.01,2013-08-31 17:40:00,
2013-08-31 12:45:00,95.0,69.0,29.94,South,185,1.5,9.0,43,0.00,,,0.00,VWS V14.01,2013-08-31 17:45:00,
2013-08-31 12:50:00,95.2,70.5,29.94,South,172,4.5,9.0,45,0.00,,,0.00,VWS V14.01,2013-08-31 17:50:00,
2013-08-31 12:55:00,95.6,70.2,29.93,WSW,255,0.0,9.0,44,0.00,,,0.00,VWS V14.01,2013-08-31 17:55:00,
2013-08-31 13:00:00,95.6,69.6,29.93,West,269,0.0,9.0,43,0.00,,,0.00,VWS V14.01,2013-08-31 18:00:00,
2013-08-31 13:05:00,95.6,69.6,29.93,SSW,195,4.5,9.0,43,0.00,,,0.00,VWS V14.01,2013-08-31 18:05:00,
2013-08-31 13:10:00,95.7,71.0,29.93,SW,217,6.0,9.0,45,0.00,,,0.00,VWS V14.01,2013-08-31 18:10:00,
2013-08-31 13:15:00,95.8,70.4,29.93,SSE,153,3.0,9.0,44,0.00,,,0.00,VWS V14.01,2013-08-31 18:15:00,
2013-08-31 13:20:00,95.8,71.1,29.93,SSW,200,0.0,9.0,45,0.00,,,0.00,VWS V14.01,2013-08-31 18:20:00,
2013-08-31 13:25:00,96.1,70.7,29.93,SSE,162,0.0,9.0,44,0.00,,,0.00,VWS V14.01,2013-08-31 18:25:00,
2013-08-31 13:30:00,96.4,70.9,29.93,SSE,159,3.0,9.0,44,0.00,,,0.00,VWS V14.01,2013-08-31 18:30:00,
2013-08-31 13:35:00,96.7,69.1,29.92,South,172,0.0,9.0,41,0.00,,,0.00,VWS V14.01,2013-08-31 18:35:00,
2013-08-31 13:40:00,96.8,69.9,29.93,North,356,1.5,9.0,42,0.00,,,0.00,VWS V14.01,2013-08-31 18:40:00,
2013-08-31 13:45:00,96.4,68.9,29.93,SE,138,0.0,9.0,41,0.00,,,0.00,VWS V14.01,2013-08-31 18:45:00,
2013-08-31 13:50:00,96.3,70.2,29.92,WNW,287,0.0,9.0,43,0.00,,,0.00,VWS V14.01,2013-08-31 18:50:00,
2013-08-31 13:55:00,96.2,70.1,29.93,ESE,115,1.5,9.0,43,0.00,,,0.00,VWS V14.01,2013-08-31 18:55:00,
2013-08-31 14:00:00,95.9,70.5,29.92,NW,313,0.0,2.0,44,0.00,,,0.00,VWS V14.01,2013-08-31 19:00:00,
2013-08-31 14:05:00,96.0,71.2,29.92,NE,42,0.0,2.0,45,0.00,,,0.00,VWS V14.01,2013-08-31 19:05:00,
2013-08-31 14:10:00,96.3,72.2,29.92,West,275,0.0,5.0,46,0.00,,,0.00,VWS V14.01,2013-08-31 19:10:00,
2013-08-31 14:15:00,96.2,71.4,29.92,NNE,19,1.5,5.0,45,0.00,,,0.00,VWS V14.01,2013-08-31 19:15:00,
2013-08-31 14:20:00,96.1,72.0,29.92,NNE,33,0.0,5.0,46,0.00,,,0.00,VWS V14.01,2013-08-31 19:20:00,
2013-08-31 14:25:00,96.5,71.0,29.92,North,353,4.5,5.0,44,0.00,,,0.00,VWS V14.01,2013-08-31 19:25:00,
2013-08-31 14:30:00,96.5,71.0,29.92,NW,307,1.5,5.0,44,0.00,,,0.00,VWS V14.01,2013-08-31 19:30:00,
2013-08-31 14:35:00,95.9,71.2,29.91,NE,39,0.0,7.0,45,0.00,,,0.00,VWS V14.01,2013-08-31 19:35:00,
2013-08-31 14:40:00,96.1,70.7,29.91,East,98,1.5,7.0,44,0.00,,,0.00,VWS V14.01,2013-08-31 19:40:00,
2013-08-31 14:45:00,96.2,70.8,29.91,ESE,114,0.0,7.0,44,0.00,,,0.00,VWS V14.01,2013-08-31 19:45:00,
2013-08-31 14:50:00,96.5,73.0,29.91,ENE,60,0.0,7.0,47,0.00,,,0.00,VWS V14.01,2013-08-31 19:50:00,
2013-08-31 14:55:00,96.5,71.7,29.91,SSE,165,0.0,7.0,45,0.00,,,0.00,VWS V14.01,2013-08-31 19:55:00,
2013-08-31 15:00:00,96.7,70.5,29.91,SSE,155,0.0,7.0,43,0.00,,,0.00,VWS V14.01,2013-08-31 20:00:00,
2013-08-31 15:05:00,97.2,72.3,29.90,ENE,63,1.5,7.0,45,0.00,,,0.00,VWS V14.01,2013-08-31 20:05:00,
2013-08-31 15:10:00,97.2,71.7,29.90,West,262,0.0,7.0,44,0.00,,,0.00,VWS V14.01,2013-08-31 20:10:00,
2013-08-31 15:15:00,97.0,70.1,29.90,SE,137,0.0,7.0,42,0.00,,,0.00,VWS V14.01,2013-08-31 20:15:00,
2013-08-31 15:20:00,96.8,69.9,29.90,North,10,0.0,7.0,42,0.00,,,0.00,VWS V14.01,2013-08-31 20:20:00,
2013-08-31 15:25:00,96.6,71.8,29.90,NNE,32,0.0,7.0,45,0.00,,,0.00,VWS V14.01,2013-08-31 20:25:00,
2013-08-31 15:30:00,96.6,71.1,29.90,NE,45,3.0,7.0,44,0.00,,,0.00,VWS V14.01,2013-08-31 20:30:00,
2013-08-31 15:35:00,96.4,72.3,29.90,NNW,342,0.0,7.0,46,0.00,,,0.00,VWS V14.01,2013-08-31 20:35:00,
2013-08-31 15:40:00,96.2,71.4,29.90,NNW,336,0.0,7.0,45,0.00,,,0.00,VWS V14.01,2013-08-31 20:40:00,
2013-08-31 15:45:00,96.7,72.5,29.89,SW,219,3.0,7.0,46,0.00,,,0.00,VWS V14.01,2013-08-31 20:45:00,
2013-08-31 15:50:00,96.6,72.4,29.89,West,264,1.5,7.0,46,0.00,,,0.00,VWS V14.01,2013-08-31 20:50:00,
2013-08-31 15:55:00,96.7,72.5,29.89,SW,217,0.0,7.0,46,0.00,,,0.00,VWS V14.01,2013-08-31 20:55:00,
2013-08-31 16:00:00,96.8,72.0,29.89,North,355,1.5,1.5,45,0.00,,,0.00,VWS V14.01,2013-08-31 21:00:00,
2013-08-31 16:05:00,96.3,70.9,29.89,North,349,0.0,3.0,44,0.00,,,0.00,VWS V14.01,2013-08-31 21:05:00,
2013-08-31 16:10:00,95.3,70.6,29.89,NW,320,3.0,3.0,45,0.00,,,0.00,VWS V14.01,2013-08-31 21:10:00,
2013-08-31 16:15:00,94.9,72.2,29.89,NNW,332,0.0,3.0,48,0.00,,,0.00,VWS V14.01,2013-08-31 21:15:00,
2013-08-31 16:20:00,94.7,70.7,29.89,NW,316,0.0,3.0,46,0.00,,,0.00,VWS V14.01,2013-08-31 21:20:00,
2013-08-31 16:25:00,94.6,71.9,29.89,West,277,0.0,3.0,48,0.00,,,0.00,VWS V14.01,2013-08-31 21:25:00,
2013-08-31 16:30:00,94.3,72.2,29.89,NNW,345,0.0,3.0,49,0.00,,,0.00,VWS V14.01,2013-08-31 21:30:00,
2013-08-31 16:35:00,94.0,71.9,29.89,NNE,16,0.0,3.0,49,0.00,,,0.00,VWS V14.01,2013-08-31 21:35:00,
2013-08-31 16:40:00,93.7,72.3,29.89,NNW,332,0.0,4.0,50,0.00,,,0.00,VWS V14.01,2013-08-31 21:40:00,
2013-08-31 16:45:00,93.4,73.2,29.89,NNE,13,0.0,4.0,52,0.00,,,0.00,VWS V14.01,2013-08-31 21:45:00,
2013-08-31 16:50:00,93.0,72.8,29.89,North,350,0.0,4.0,52,0.00,,,0.00,VWS V14.01,2013-08-31 21:50:00,
2013-08-31 16:55:00,93.1,73.4,29.89,NW,325,0.0,4.0,53,0.00,,,0.00,VWS V14.01,2013-08-31 21:55:00,
2013-08-31 17:00:00,93.5,73.2,29.89,NW,307,0.0,4.0,52,0.00,,,0.00,VWS V14.01,2013-08-31 22:00:00,
2013-08-31 17:05:00,93.7,72.8,29.89,NW,324,0.0,4.0,51,0.00,,,0.00,VWS V14.01,2013-08-31 22:05:00,
2013-08-31 17:10:00,93.5,72.7,29.89,North,349,0.0,5.0,51,0.00,,,0.00,VWS V14.01,2013-08-31 22:10:00,
2013-08-31 17:15:00,93.2,71.8,29.89,NW,318,0.0,5.0,50,0.00,,,0.00,VWS V14.01,2013-08-31 22:15:00,
2013-08-31 17:20:00,92.7,72.5,29.89,NW,321,0.0,5.0,52,0.00,,,0.00,VWS V14.01,2013-08-31 22:20:00,
2013-08-31 17:24:00,92.4,73.3,29.89,NW,320,0.0,5.0,54,0.00,,,0.00,VWS V14.01,2013-08-31 22:24:00,
2013-08-31 17:29:00,92.2,72.6,29.89,NW,320,0.0,5.0,53,0.00,,,0.00,VWS V14.01,2013-08-31 22:29:00,
2013-08-31 17:34:00,92.1,73.6,29.88,NW,320,0.0,5.0,55,0.00,,,0.00,VWS V14.01,2013-08-31 22:34:00,
2013-08-31 17:39:00,91.9,73.4,29.88,NW,326,0.0,5.0,55,0.00,,,0.00,VWS V14.01,2013-08-31 22:39:00,
2013-08-31 17:44:00,91.9,74.0,29.88,NW,326,0.0,5.0,56,0.00,,,0.00,VWS V14.01,2013-08-31 22:44:00,
2013-08-31 17:49:00,91.8,74.9,29.88,NW,326,0.0,5.0,58,0.00,,,0.00,VWS V14.01,2013-08-31 22:49:00,
2013-08-31 17:54:00,91.6,74.7,29.88,NNW,328,0.0,5.0,58,0.00,,,0.00,VWS V14.01,2013-08-31 22:54:00,
2013-08-31 17:59:00,91.5,74.7,29.88,NNW,330,0.0,0.0,58,0.00,,,0.00,VWS V14.01,2013-08-31 22:59:00,
2013-08-31 18:00:00,91.5,74.7,29.88,NNW,330,0.0,5.0,58,0.00,,,0.00,VWS V14.01,2013-08-31 23:00:00,
2013-08-31 18:04:00,91.4,75.1,29.88,NNW,330,0.0,1.0,59,0.00,,,0.00,VWS V14.01,2013-08-31 23:04:00,
2013-08-31 18:09:00,91.2,74.4,29.88,NNW,335,0.0,1.0,58,0.00,,,0.00,VWS V14.01,2013-08-31 23:09:00,
2013-08-31 18:14:00,91.0,74.2,29.88,NNW,335,0.0,1.0,58,0.00,,,0.00,VWS V14.01,2013-08-31 23:14:00,
2013-08-31 18:19:00,90.8,75.0,29.88,NNW,335,0.0,1.0,60,0.00,,,0.00,VWS V14.01,2013-08-31 23:19:00,
2013-08-31 18:24:00,90.6,74.8,29.88,NNW,335,0.0,1.0,60,0.00,,,0.00,VWS V14.01,2013-08-31 23:24:00,
2013-08-31 19:00:00,91.5,74.7,29.88,NNW,330,0.0,5.0,58,0.00,,,0.00,VWS V15.00,2013-09-01 00:00:00,
2013-08-31 20:00:00,89.2,75.0,29.88,NNW,338,0.0,1.0,63,0.00,,,0.00,VWS V14.01,2013-09-01 01:00:00,
2013-08-31 21:00:00,89.2,75.0,29.88,NNW,338,0.0,1.0,63,0.00,,,0.00,VWS V15.00,2013-09-01 02:00:00,
2013-08-31 22:14:00,83.6,70.1,29.89,SSW,201,0.0,0.0,64,0.04,,,0.00,VWS V14.01,2013-09-01 03:14:00,
2013-08-31 22:19:00,83.3,69.9,29.90,South,176,0.0,1.0,64,0.04,,,0.00,VWS V14.01,2013-09-01 03:19:00,
2013-08-31 22:24:00,83.1,70.1,29.89,SSE,168,0.0,1.0,65,0.04,,,0.00,VWS V14.01,2013-09-01 03:24:00,
2013-08-31 22:29:00,82.9,70.4,29.89,SSE,165,0.0,1.0,66,0.04,,,0.00,VWS V14.01,2013-09-01 03:29:00,
2013-08-31 22:34:00,82.7,70.2,29.89,SSW,212,0.0,3.0,66,0.04,,,0.00,VWS V14.01,2013-09-01 03:34:00,
2013-08-31 22:39:00,82.6,70.1,29.89,SSE,162,0.0,3.0,66,0.04,,,0.00,VWS V14.01,2013-09-01 03:39:00,
2013-08-31 22:44:00,82.4,69.9,29.89,SSE,167,0.0,4.0,66,0.04,,,0.00,VWS V14.01,2013-09-01 03:44:00,
2013-08-31 22:49:00,82.2,70.2,29.89,SSW,193,0.0,4.0,67,0.04,,,0.00,VWS V14.01,2013-09-01 03:49:00,
2013-08-31 22:54:00,82.1,70.1,29.89,SSW,198,0.0,4.0,67,0.04,,,0.00,VWS V14.01,2013-09-01 03:54:00,
2013-08-31 22:59:00,82.0,70.0,29.89,SSE,156,1.5,4.0,67,0.04,,,0.00,VWS V14.01,2013-09-01 03:59:00,
2013-08-31 23:01:00,82.0,70.0,29.89,SSE,156,0.0,4.0,67,0.04,,,0.00,VWS V14.01,2013-09-01 04:01:00,
2013-08-31 23:06:00,81.8,69.8,29.89,South,177,3.0,4.0,67,0.04,,,0.00,VWS V14.01,2013-09-01 04:06:00,
2013-08-31 23:11:00,81.6,69.6,29.89,South,171,0.0,4.0,67,0.04,,,0.00,VWS V14.01,2013-09-01 04:11:00,
2013-08-31 23:16:00,81.5,69.9,29.89,SW,225,0.0,4.0,68,0.04,,,0.00,VWS V14.01,2013-09-01 04:16:00,
2013-08-31 23:21:00,81.3,69.7,29.89,SSE,166,0.0,4.0,68,0.04,,,0.00,VWS V14.01,2013-09-01 04:21:00,
2013-08-31 23:26:00,81.2,70.1,29.89,SSE,165,0.0,4.0,69,0.04,,,0.00,VWS V14.01,2013-09-01 04:26:00,
2013-08-31 23:31:00,81.0,69.9,29.89,SSE,152,0.0,4.0,69,0.04,,,0.00,VWS V14.01,2013-09-01 04:31:00,
2013-08-31 23:37:00,80.9,69.8,29.89,South,169,0.0,4.0,69,0.04,,,0.00,VWS V14.01,2013-09-01 04:37:00,
2013-08-31 23:42:00,80.8,69.7,29.89,South,170,0.0,4.0,69,0.04,,,0.00,VWS V14.01,2013-09-01 04:42:00,
2013-08-31 23:47:00,80.8,70.1,29.89,South,191,0.0,4.0,70,0.04,,,0.00,VWS V14.01,2013-09-01 04:47:00,
2013-08-31 23:52:00,80.8,70.1,29.89,South,169,0.0,4.0,70,0.04,,,0.00,VWS V14.01,2013-09-01 04:52:00,
2013-08-31 23:56:00,80.9,70.2,29.89,SSE,163,0.0,4.0,70,0.04,,,0.00,VWS V14.01,2013-09-01 04:56:00,